TimeCST,TemperatureF,Dew PointF,Humidity,Sea Level PressureIn,VisibilityMPH,Wind Direction,Wind SpeedMPH,Gust SpeedMPH,PrecipitationIn,Events,Conditions,WindDirDegrees,DateUTC
12:53 AM,-16.1,-20.0,82,30.32,10.0,West,3.5,-,N/A,,Mostly Cloudy,270,2014-01-08 06:53:00
1:53 AM,-16.1,-20.9,79,30.33,10.0,Calm,Calm,-,N/A,,Overcast,0,2014-01-08 07:53:00
2:16 AM,-18.0,-23.1,78,30.21,10.0,Calm,Calm,-,N/A,,Scattered Clouds,0,2014-01-08 08:16:00
2:53 AM,-18.9,-23.1,81,30.34,10.0,Calm,Calm,-,N/A,,Clear,0,2014-01-08 08:53:00
3:53 AM,-20.9,-24.0,86,30.35,10.0,Calm,Calm,-,N/A,,Clear,0,2014-01-08 09:53:00
4:53 AM,-22.0,-27.0,77,30.36,10.0,WSW,3.5,-,N/A,,Clear,250,2014-01-08 10:53:00
5:53 AM,-17.0,-22.0,78,30.37,10.0,Variable,3.5,-,N/A,,Clear,0,2014-01-08 11:53:00
6:53 AM,-17.0,-22.0,78,30.38,10.0,West,3.5,-,N/A,,Clear,280,2014-01-08 12:53:00
7:53 AM,-20.0,-25.1,78,30.41,10.0,West,3.5,-,N/A,,Clear,280,2014-01-08 13:53:00
8:53 AM,-17.0,-22.0,78,30.42,10.0,WNW,4.6,-,N/A,,Clear,300,2014-01-08 14:53:00
9:53 AM,-14.1,-18.9,79,30.45,10.0,WNW,4.6,-,N/A,,Clear,300,2014-01-08 15:53:00
10:53 AM,-11.0,-16.1,78,30.46,10.0,NW,4.6,-,N/A,,Clear,310,2014-01-08 16:53:00
11:53 AM,-6.0,-14.1,68,30.44,10.0,NW,3.5,-,N/A,,Clear,310,2014-01-08 17:53:00
12:53 PM,-2.9,-15.0,56,30.43,10.0,WNW,5.8,-,N/A,,Clear,300,2014-01-08 18:53:00
1:53 PM,-2.0,-14.1,57,30.44,10.0,SW,6.9,-,N/A,,Clear,220,2014-01-08 19:53:00
2:53 PM,1.0,-13.0,52,30.44,10.0,West,3.5,-,N/A,,Clear,270,2014-01-08 20:53:00
3:53 PM,-0.9,-11.9,60,30.44,10.0,SW,6.9,-,N/A,,Clear,230,2014-01-08 21:53:00
4:53 PM,-6.0,-14.1,68,30.45,10.0,SW,9.2,-,N/A,,Clear,230,2014-01-08 22:53:00
5:53 PM,-9.0,-15.0,75,30.44,10.0,SSW,5.8,-,N/A,,Clear,200,2014-01-08 23:53:00
6:53 PM,-11.0,-16.1,78,30.43,10.0,SSW,5.8,-,N/A,,Clear,210,2014-01-09 00:53:00
7:53 PM,-15.0,-18.9,82,30.42,10.0,Calm,Calm,-,N/A,,Clear,0,2014-01-09 01:53:00
8:53 PM,-16.1,-20.0,82,30.40,10.0,SE,3.5,-,N/A,,Clear,130,2014-01-09 02:53:00
9:53 PM,-18.0,-22.0,82,30.39,10.0,SSE,3.5,-,N/A,,Clear,150,2014-01-09 03:53:00
10:53 PM,-18.0,-20.9,87,30.34,10.0,SE,4.6,-,N/A,,Clear,140,2014-01-09 04:53:00
11:53 PM,-16.1,-20.9,79,30.30,10.0,South,4.6,-,N/A,,Clear,170,2014-01-09 05:53:00